Keflavik, Iceland

8:21 PM GMT on February 10, 2016 (GMT +0000)
Keflavik

Weather History for BIKF - November, 2013

Change the Weather History Date:

Monday, November 18, 2013

  Actual Average Record
Temperature  
Mean Temperature 28 °F -  
Max Temperature 35 °F 36 °F 46 °F (1999)
Min Temperature 21 °F 29 °F 12 °F (2006)
Degree Days  
Heating Degree Days 37    
Moisture  
Dew Point 20 °F    
Average Humidity 73    
Maximum Humidity 100    
Minimum Humidity 48    
Precipitation  
Precipitation 0.03 in - - ()
Sea Level Pressure  
Sea Level Pressure 29.81 in    
Wind  
Wind Speed 21 mph ()    
Max Wind Speed 34 mph    
Max Gust Speed 47 mph    
Visibility 4.6 miles    
Events Snow    
Averages and records for this station are not official NWS values.
T = Trace of Precipitation, MM = Missing Value Source: Averaged Metar Reports

Daily Weather History Graph

Daily Weather History Graph

Search for Another Location

Airport or City:

Trip Planner

Search our weather history database for the weather conditions in past years. The results will help you decide how hot, cold, wet, or windy it might be!

Date:

Astronomy

Nov. 18, 2013 Rise Set
Actual Time 10:07 AM GMT 4:22 PM GMT
Civil Twilight 9:06 AM GMT 5:24 PM GMT
Nautical Twilight 8:05 AM GMT 6:25 PM GMT
Astronomical Twilight 7:08 AM GMT 7:21 PM GMT
Moon 5:09 PM GMT (11/18) 10:51 AM GMT (11/18)
Length of Visible Light 8h 17m
Length of Day
6h 15m
Full, 99% of the Moon is Illuminated
Nov 18
Full
Nov 25
Last Quarter
Dec 3
New
Dec 9
First Quarter
Dec 17
Full

Hourly Weather History & Observations

Time (GMT) Temp. Windchill Dew Point Humidity Pressure Visibility Wind Dir Wind Speed Gust Speed Precip Events Conditions
12:00 AM 26 °F - 26 °F 97% 29.64 in 0 mi West 33.4 mph - - Snow Light Snow Showers
12:00 AM 26.6 °F 9.6 °F 24.8 °F 93% 29.62 in 0.3 mi West 33.4 mph 47.2 mph N/A Snow Light Snow Showers
12:30 AM 26.6 °F 9.3 °F 23.0 °F 86% 29.62 in 0.6 mi WNW 34.5 mph - N/A Snow Blowing Snow
1:00 AM 26.6 °F 10.0 °F 21.2 °F 80% 29.65 in 0.6 mi WNW 31.1 mph - N/A Snow Blowing Snow
1:30 AM 26.6 °F 10.6 °F 19.4 °F 74% 29.65 in 0.6 mi WNW 28.8 mph 40.3 mph N/A Snow Blowing Snow
2:00 AM 26.6 °F 10.6 °F 19.4 °F 74% 29.65 in 1.6 mi WNW 28.8 mph 40.3 mph N/A Snow Blowing Snow
2:30 AM 26.6 °F 10.0 °F 21.2 °F 80% 29.65 in 1.6 mi WNW 31.1 mph - N/A Snow Blowing Snow
3:00 AM 25 °F - 22 °F 85% 29.70 in 1 mi WNW 33.4 mph - - Snow Heavy Snow Showers
3:00 AM 24.8 °F 7.1 °F 23.0 °F 93% 29.68 in 0.6 mi WNW 33.4 mph - N/A Snow Snow Showers
3:30 AM 23.0 °F 4.9 °F 23.0 °F 100% 29.68 in 0.4 mi WNW 32.2 mph 43.7 mph N/A Snow Snow
4:00 AM 23.0 °F 6.0 °F 23.0 °F 100% 29.71 in 0.4 mi NW 27.6 mph - N/A Snow Snow
4:30 AM 23.0 °F 5.7 °F 23.0 °F 100% 29.71 in 0.4 mi NW 28.8 mph - N/A Snow Snow
5:00 AM 23.0 °F 6.9 °F 23.0 °F 100% 29.74 in 0.9 mi NNW 24.2 mph - N/A Snow Light Snow
5:30 AM 24.8 °F 11.1 °F 24.8 °F 100% 29.74 in 4.3 mi North 18.4 mph - N/A   Mostly Cloudy
6:00 AM 24 °F - - % 29.78 in 4 mi NNW 19.6 mph - - Snow Light Snow Showers
6:00 AM 24.8 °F 10.7 °F 21.2 °F 86% 29.77 in 4.3 mi NNW 19.6 mph - N/A   Mostly Cloudy
6:30 AM 26.6 °F 14.3 °F 17.6 °F 69% 29.77 in 4.3 mi NNW 16.1 mph - N/A Snow Light Snow Showers
7:00 AM 24.8 °F 10.3 °F 14.0 °F 64% 29.80 in 6.2 mi NW 20.7 mph - N/A   Scattered Clouds
7:30 AM 23.0 °F 8.7 °F 10.4 °F 59% 29.80 in 6.2 mi NW 18.4 mph - N/A   Scattered Clouds
8:00 AM 23.0 °F 10.6 °F 10.4 °F 59% 29.80 in 6.2 mi NNW 13.8 mph - N/A   Scattered Clouds
8:30 AM 21.2 °F 8.9 °F 10.4 °F 63% 29.80 in 6.2 mi NNW 12.7 mph - N/A   Scattered Clouds
9:00 AM 23 °F - 11 °F 48% 29.83 in 12 mi NNW 11.5 mph - -  
9:00 AM 23.0 °F 11.7 °F 12.2 °F 63% 29.80 in 6.2 mi NNW 11.5 mph - N/A   Scattered Clouds
9:30 AM 24.8 °F 15.3 °F 14.0 °F 64% 29.83 in 6.2 mi NW 9.2 mph - N/A   Mostly Cloudy
10:00 AM 23.0 °F 11.7 °F 17.6 °F 80% 29.83 in 0.5 mi NW 11.5 mph - N/A Snow Light Snow Showers
10:30 AM 23.0 °F 15.8 °F 21.2 °F 93% 29.86 in 6.2 mi West 5.8 mph - N/A   Mostly Cloudy
11:00 AM 23.0 °F 15.8 °F 21.2 °F 93% 29.86 in 3.1 mi WSW 5.8 mph - N/A Snow Light Snow Showers
11:30 AM 24.8 °F - 23.0 °F 93% 29.86 in 6.2 mi WNW 1.2 mph - N/A   Mostly Cloudy
12:00 PM 24 °F - 15 °F 59% 29.87 in 9 mi 1.2 mph - -   Mostly Cloudy
12:00 PM 24.8 °F - 23.0 °F 93% 29.86 in 6.2 mi Variable 2.3 mph - N/A Snow Light Snow Showers
12:30 PM 28.4 °F 16.6 °F 21.2 °F 74% 29.86 in 3.7 mi WNW 16.1 mph - N/A Snow Light Snow Showers
1:00 PM 28.4 °F 14.4 °F 23.0 °F 80% 29.86 in 1.9 mi WNW 23.0 mph - N/A Snow Light Snow Showers
1:30 PM 28.4 °F 16.6 °F 23.0 °F 80% 29.86 in 6.2 mi WNW 16.1 mph - N/A   Mostly Cloudy
2:00 PM 30.2 °F 16.8 °F 19.4 °F 64% 29.86 in 6.2 mi WNW 23.0 mph - N/A Snow Light Blowing Snow
2:30 PM 28.4 °F 13.8 °F 17.6 °F 64% 29.89 in 6.2 mi WNW 25.3 mph - N/A Snow Light Blowing Snow
3:00 PM 28 °F - 17 °F 52% 29.89 in 25 mi WNW 25.3 mph - - Snow Blowing Snow
3:00 PM 28.4 °F 13.8 °F 17.6 °F 64% 29.89 in 6.2 mi WNW 25.3 mph - N/A Snow Light Blowing Snow
3:30 PM 28.4 °F 14.1 °F 19.4 °F 69% 29.89 in 6.2 mi WNW 24.2 mph - N/A Snow Light Low Drifting Snow
4:00 PM 28.4 °F 13.8 °F 17.6 °F 64% 29.89 in 6.2 mi WNW 25.3 mph - N/A Snow Light Low Drifting Snow
4:30 PM 28.4 °F 13.5 °F 15.8 °F 59% 29.89 in 6.2 mi WNW 26.5 mph - N/A Snow Light Low Drifting Snow
5:00 PM 30.2 °F 20.8 °F 14.0 °F 51% 29.89 in 6.2 mi WNW 11.5 mph - N/A Snow Light Low Drifting Snow
5:30 PM 30.2 °F 20.2 °F 17.6 °F 60% 29.89 in 6.2 mi WNW 12.7 mph - N/A   Mostly Cloudy
6:00 PM 29 °F - 20 °F 57% 29.93 in 37 mi WNW 15.0 mph - -   Mostly Cloudy
6:00 PM 30.2 °F 19.3 °F 17.6 °F 60% 29.92 in 6.2 mi WNW 15.0 mph - N/A   Mostly Cloudy
6:30 PM 30.2 °F 19.3 °F 17.6 °F 60% 29.92 in 6.2 mi WNW 15.0 mph - N/A   Scattered Clouds
7:00 PM 30.2 °F 19.3 °F 19.4 °F 64% 29.92 in 6.2 mi West 15.0 mph - N/A   Mostly Cloudy
7:30 PM 28.4 °F 18.0 °F 17.6 °F 64% 29.92 in 6.2 mi West 12.7 mph - N/A   Mostly Cloudy
8:00 PM 30.2 °F 19.8 °F 19.4 °F 64% 29.92 in 6.2 mi West 13.8 mph - N/A   Mostly Cloudy
8:30 PM 32.0 °F 21.6 °F 19.4 °F 60% 29.89 in 6.2 mi West 15.0 mph - N/A   Mostly Cloudy
9:00 PM 32 °F - 21 °F 51% 29.91 in 31 mi West 15.0 mph - -   Mostly Cloudy
9:00 PM 32.0 °F 21.6 °F 21.2 °F 64% 29.89 in 6.2 mi West 15.0 mph - N/A   Mostly Cloudy
9:30 PM 33.8 °F 23.9 °F 23.0 °F 65% 29.86 in 6.2 mi West 15.0 mph - N/A   Mostly Cloudy
10:00 PM 33.8 °F 25.3 °F 24.8 °F 70% 29.83 in 6.2 mi WSW 11.5 mph - N/A   Mostly Cloudy
10:30 PM 35.6 °F 25.9 °F 26.6 °F 70% 29.83 in 6.2 mi WSW 16.1 mph - N/A   Mostly Cloudy
11:00 PM 35.6 °F 25.9 °F 26.6 °F 70% 29.80 in 6.2 mi WSW 16.1 mph - N/A   Mostly Cloudy
11:30 PM 35.6 °F 26.6 °F 28.4 °F 75% 29.77 in 6.2 mi SW 13.8 mph - N/A   Overcast